Location: Bouchavesnes-Bergen
(49.9859°N, 2.9203°E)
Time: 11:37:04
(UTC+00:00)

BREEZE M DEB (TANK) - Pass Details

Date: 09 March 2021
Orbit: 275 x 14501 km, 49.5° (Epoch: 12 April)

Event Time Altitude Azimuth Distance (km) Brightness Sun altitude
Exits shadow 04:57:32 24° 267° (W) 923 2.9 -13.2°
Maximum altitude 04:59:03 60° 193° (SSW) 632 2.5 -13.0°
Drops below altitude 10° 05:05:36 10° 115° (ESE) 3,476 7.3 -11.9°
Sets 05:11:14 0° 113° (ESE) 6,003 8.7 -11.0°
